| time (UTC) | temp F | wind direction | speed knots | gust knots | rain 1hr in | rain 24hr in | rain mn in | humidity % | barometer mb |
| 20260506014327 | 59 | 360 | 1.7 | 3.5 | 0.00 | 5.55 | 0.11 | 85 | 1009.2 |
| 20260506013343 | 59 | 360 | 2.6 | 4.3 | 0.00 | 5.55 | 0.11 | 85 | 1009.2 |
| 20260506012325 | 59 | 360 | 3.5 | 5.2 | 0.00 | 5.55 | 0.11 | 85 | 1009.2 |
| 20260506011332 | 59 | 360 | 2.6 | 4.3 | 0.04 | 5.55 | 0.11 | 86 | 1009.2 |
| 20260506010344 | 59 | 360 | 3.5 | 4.3 | 0.12 | 5.55 | 0.11 | 87 | 1009.3 |
| 20260506005330 | 59 | 360 | 3.5 | 8.7 | 0.20 | 7.36 | 0.11 | 87 | 1009.5 |
| 20260506004341 | 59 | 360 | 7.0 | 9.6 | 0.35 | 7.36 | 0.11 | 88 | 1009.6 |
| 20260506003326 | 59 | 360 | 2.6 | 7.8 | 0.43 | 7.36 | 0.11 | 88 | 1009.5 |
| 20260506002328 | 59 | 360 | 5.2 | 8.7 | 0.43 | 7.36 | 0.11 | 87 | 1009.9 |
| 20260506001325 | 59 | 360 | 4.3 | 7.0 | 0.39 | 7.32 | 0.10 | 86 | 1010.0 |
| 20260506000331 | 60 | 360 | 2.6 | 4.3 | 0.31 | 7.24 | 0.08 | 86 | 1010.6 |
| 20260505235344 | 60 | 360 | 2.6 | 9.6 | 0.24 | 8.74 | 0.06 | 84 | 1010.7 |
| 20260505234330 | 60 | 360 | 5.2 | 7.8 | 0.08 | 8.58 | 0.02 | 82 | 1010.6 |
| 20260505233350 | 61 | 360 | 2.6 | 7.8 | 0.00 | 8.50 | 0.00 | 81 | 1010.5 |
| 20260505232332 | 60 | 360 | 5.2 | 7.8 | 0.00 | 8.50 | 0.00 | 81 | 1010.5 |
| 20260505231338 | 60 | 360 | 3.5 | 4.3 | 0.00 | 8.50 | 0.00 | 82 | 1010.5 |
| 20260505230329 | 60 | 360 | 2.6 | 3.5 | 0.00 | 8.50 | 0.00 | 82 | 1010.6 |
| 20260505225333 | 60 | 360 | 2.6 | 3.5 | 0.00 | 1.05 | 0.00 | 83 | 1010.5 |
| 20260505224323 | 60 | 360 | 1.7 | 2.6 | 0.00 | 1.05 | 0.00 | 83 | 1010.8 |
| 20260505223326 | 60 | 360 | 0.9 | 3.5 | 0.00 | 1.05 | 0.00 | 82 | 1011.0 |
| 20260505222337 | 61 | 360 | 2.6 | 4.3 | 0.00 | 1.05 | 0.00 | 81 | 1011.1 |
| 20260505221324 | 60 | 360 | 2.6 | 5.2 | 0.00 | 1.05 | 0.00 | 82 | 1011.4 |
| 20260505220337 | 60 | 360 | 2.6 | 5.2 | 0.00 | 1.05 | 0.00 | 82 | 1011.6 |
| 20260505215347 | 60 | 360 | 2.6 | 3.5 | 0.00 | 1.05 | 2.69 | 83 | 1011.9 |
| 20260505214330 | 60 | 360 | 3.5 | 5.2 | 0.00 | 1.05 | 2.69 | 82 | 1011.9 |
| 20260505213342 | 60 | 360 | 2.6 | 5.2 | 0.00 | 1.05 | 2.69 | 82 | 1011.9 |
| 20260505212341 | 60 | 360 | 3.5 | 5.2 | 0.00 | 1.05 | 2.69 | 82 | 1012.0 |
| 20260505211335 | 60 | 360 | 3.5 | 7.8 | 0.00 | 1.05 | 2.69 | 82 | 1011.9 |
| 20260505210338 | 60 | 360 | 4.3 | 7.0 | 0.00 | 1.05 | 2.69 | 82 | 1012.0 |
| 20260505205335 | 60 | 360 | 3.5 | 5.2 | 0.00 | 1.05 | 2.69 | 82 | 1012.1 |
| 20260505204334 | 60 | 360 | 3.5 | 7.0 | 0.00 | 1.05 | 2.69 | 83 | 1012.1 |
| 20260505203327 | 60 | 360 | 4.3 | 7.0 | 0.00 | 1.05 | 2.69 | 82 | 1012.2 |
| 20260505202329 | 60 | 360 | 3.5 | 4.3 | 0.00 | 1.05 | 2.69 | 82 | 1012.1 |
| 20260505201341 | 59 | 360 | 2.6 | 5.2 | 0.00 | 1.05 | 2.69 | 83 | 1012.2 |
| 20260505200322 | 59 | 360 | 3.5 | 5.2 | 0.00 | 1.05 | 2.69 | 83 | 1012.1 |
| 20260505195328 | 59 | 360 | 5.2 | 7.0 | 0.00 | 1.05 | 2.69 | 83 | 1012.2 |
| 20260505194338 | 59 | 360 | 1.7 | 5.2 | 0.00 | 1.05 | 2.69 | 83 | 1012.0 |
| 20260505193323 | 59 | 360 | 2.6 | 7.0 | 0.00 | 1.05 | 2.69 | 83 | 1011.9 |
| 20260505192335 | 59 | 360 | 4.3 | 7.0 | 0.00 | 1.05 | 2.69 | 83 | 1011.8 |
| 20260505191328 | 60 | 360 | 1.7 | 3.5 | 0.00 | 1.05 | 2.69 | 83 | 1011.8 |
| 20260505190324 | 60 | 360 | 1.7 | 4.3 | 0.00 | 1.05 | 2.69 | 83 | 1011.7 |
| 20260505185340 | 60 | 360 | 2.6 | 3.5 | 0.00 | 1.05 | 2.69 | 83 | 1011.6 |
| 20260505184349 | 61 | 360 | 1.7 | 3.5 | 0.00 | 1.05 | 2.69 | 82 | 1011.6 |
| 20260505183331 | 61 | 360 | 2.6 | 4.3 | 0.00 | 1.05 | 2.69 | 82 | 1011.6 |
| 20260505182343 | 62 | 360 | 1.7 | 4.3 | 0.00 | 1.05 | 2.69 | 80 | 1011.5 |
| 20260505181325 | 63 | 360 | 3.5 | 4.3 | 0.00 | 1.05 | 2.69 | 78 | 1011.6 |
| 20260505180330 | 63 | 360 | 0.9 | 1.7 | 0.00 | 1.05 | 2.69 | 73 | 1011.7 |
| 20260505175336 | 63 | 360 | 0.0 | 2.6 | 0.00 | 1.05 | 2.69 | 74 | 1011.7 |
| 20260505174323 | 63 | 360 | 2.6 | 4.3 | 0.00 | 1.05 | 2.69 | 73 | 1011.8 |
| 20260505173328 | 64 | 360 | 2.6 | 5.2 | 0.00 | 1.05 | 2.69 | 73 | 1011.8 |
| 20260505172338 | 64 | 360 | 3.5 | 4.3 | 0.04 | 1.05 | 2.69 | 72 | 1011.8 |
| 20260505171325 | 64 | 360 | 2.6 | 3.5 | 0.04 | 1.05 | 2.69 | 70 | 1011.7 |
| 20260505170330 | 64 | 360 | 1.7 | 4.3 | 0.04 | 1.05 | 2.69 | 70 | 1011.8 |
| 20260505165339 | 64 | 360 | 1.7 | 2.6 | 0.04 | 1.05 | 2.69 | 69 | 1011.7 |
| 20260505164325 | 64 | 360 | 2.6 | 3.5 | 0.04 | 1.05 | 2.69 | 70 | 1011.8 |
| 20260505163332 | 64 | 360 | 2.6 | 3.5 | 0.04 | 1.05 | 2.69 | 71 | 1011.9 |
| 20260505162335 | 64 | 360 | 0.9 | 3.5 | 0.00 | 1.05 | 2.68 | 72 | 1011.8 |
| 20260505161324 | 64 | 360 | 2.6 | 4.3 | 0.00 | 1.05 | 2.68 | 71 | 1011.9 |
| 20260505160327 | 64 | 360 | 1.7 | 3.5 | 0.00 | 1.05 | 2.68 | 69 | 1011.9 |
| 20260505153325 | 64 | 360 | 0.9 | 2.6 | 0.00 | 1.05 | 2.68 | 72 | 1011.9 |
| 20260505152338 | 64 | 360 | 1.7 | 2.6 | 0.00 | 1.05 | 2.68 | 73 | 1011.9 |
| 20260505151334 | 64 | 360 | 0.9 | 2.6 | 0.00 | 1.05 | 2.68 | 74 | 1012.0 |
| 20260505150325 | 63 | 360 | 1.7 | 2.6 | 0.00 | 1.05 | 2.68 | 74 | 1012.0 |
| 20260505140342 | 63 | 360 | 3.5 | 5.2 | 0.00 | 1.05 | 2.68 | 79 | 1012.1 |
| 20260505124343 | 63 | 360 | 2.6 | 5.2 | 0.00 | 1.05 | 2.68 | 75 | 1012.3 |
| 20260505123324 | 62 | 360 | 2.6 | 5.2 | 0.00 | 1.05 | 2.68 | 76 | 1012.3 |
| 20260505122334 | 62 | 360 | 3.5 | 7.0 | 0.00 | 1.05 | 2.68 | 76 | 1012.3 |
| 20260505121333 | 62 | 360 | 3.5 | 5.2 | 0.00 | 1.05 | 2.68 | 75 | 1012.3 |
| 20260505120328 | 62 | 360 | 2.6 | 3.5 | 0.00 | 1.05 | 2.68 | 74 | 1012.3 |
| 20260505115324 | 62 | 360 | 1.7 | 4.3 | 0.00 | 1.05 | 2.68 | 75 | 1012.4 |
| 20260505114338 | 62 | 360 | 2.6 | 3.5 | 0.00 | 1.05 | 2.68 | 75 | 1012.4 |
| 20260505113345 | 62 | 360 | 2.6 | 3.5 | 0.00 | 1.05 | 2.68 | 76 | 1012.4 |
| 20260505112333 | 62 | 360 | 1.7 | 2.6 | 0.00 | 1.05 | 2.68 | 77 | 1012.3 |
| 20260505111346 | 62 | 360 | 2.6 | 3.5 | 0.00 | 1.05 | 2.68 | 77 | 1012.3 |
| 20260505110331 | 62 | 360 | 0.9 | 3.5 | 0.00 | 1.05 | 2.68 | 78 | 1012.5 |
| 20260505101334 | 63 | 360 | 1.7 | 3.5 | 0.00 | 1.05 | 2.68 | 76 | 1012.4 |
| 20260505100333 | 63 | 360 | 1.7 | 2.6 | 0.00 | 1.05 | 2.68 | 76 | 1012.3 |
| 20260505095343 | 62 | 360 | 1.7 | 2.6 | 0.00 | 1.05 | 2.68 | 76 | 1012.3 |
| 20260505094343 | 62 | 360 | 0.9 | 2.6 | 0.00 | 1.05 | 2.68 | 75 | 1012.4 |
| 20260505093334 | 62 | 360 | 0.9 | 2.6 | 0.00 | 1.05 | 2.68 | 74 | 1012.2 |
| 20260505092330 | 62 | 360 | 0.9 | 2.6 | 0.00 | 1.05 | 2.68 | 75 | 1012.3 |
| 20260505091340 | 62 | 360 | 1.7 | 3.5 | 0.00 | 1.05 | 2.68 | 76 | 1012.2 |
| 20260505090351 | 62 | 360 | 1.7 | 3.5 | 0.04 | 1.05 | 2.68 | 77 | 1012.1 |
| 20260505085336 | 61 | 360 | 1.7 | 5.2 | 0.08 | 1.05 | 2.68 | 79 | 1012.2 |
| 20260505084336 | 61 | 360 | 0.9 | 4.3 | 0.08 | 1.05 | 2.68 | 81 | 1012.1 |
| 20260505083329 | 61 | 360 | 3.5 | 7.8 | 0.08 | 1.05 | 2.68 | 82 | 1012.1 |
| 20260505082330 | 60 | 360 | 4.3 | 8.7 | 0.08 | 1.05 | 2.68 | 82 | 1012.1 |
| 20260505081342 | 60 | 360 | 5.2 | 8.7 | 0.08 | 1.05 | 2.68 | 80 | 1011.9 |
| 20260505080343 | 60 | 360 | 8.7 | 13.0 | 0.04 | 1.05 | 2.67 | 82 | 1012.2 |
| 20260505075328 | 61 | 360 | 3.5 | 4.3 | 0.00 | 1.04 | 2.66 | 87 | 1011.8 |
| 20260505074333 | 60 | 360 | 1.7 | 2.6 | 0.00 | 1.04 | 2.66 | 89 | 1011.5 |
| 20260505073330 | 60 | 360 | 0.0 | 0.0 | 0.00 | 1.04 | 2.66 | 91 | 1011.4 |
| 20260505072336 | 60 | 360 | 0.0 | 1.7 | 0.00 | 1.04 | 2.66 | 91 | 1011.3 |
| 20260505071324 | 59 | 360 | 0.0 | 1.7 | 0.00 | 1.04 | 2.66 | 92 | 1011.4 |
| 20260505070338 | 59 | 360 | 0.9 | 2.6 | 0.00 | 1.04 | 2.66 | 92 | 1011.3 |
| 20260505065327 | 59 | 360 | 0.9 | 3.5 | 0.00 | 1.04 | 2.66 | 92 | 1011.3 |
| 20260505064335 | 59 | 360 | 0.0 | 3.5 | 0.00 | 1.04 | 2.66 | 92 | 1011.2 |
| 20260505063338 | 59 | 360 | 0.9 | 3.5 | 0.00 | 1.04 | 2.66 | 92 | 1011.3 |
| 20260505062325 | 59 | 360 | 0.0 | 1.7 | 0.00 | 1.04 | 2.66 | 93 | 1011.2 |
| 20260505061323 | 58 | 360 | 1.7 | 1.7 | 0.00 | 1.04 | 2.66 | 93 | 1011.0 |
| 20260505060338 | 57 | 360 | 0.9 | 2.6 | 0.00 | 1.04 | 2.66 | 93 | 1010.9 |
| 20260505055339 | 57 | 360 | 1.7 | 2.6 | 0.00 | 1.04 | 2.66 | 93 | 1010.8 |
| 20260505054330 | 57 | 360 | 0.0 | 1.7 | 0.00 | 1.04 | 2.66 | 93 | 1010.8 |
| 20260505053325 | 57 | 360 | 1.7 | 3.5 | 0.00 | 1.04 | 2.66 | 93 | 1010.5 |
| 20260505052332 | 57 | 360 | 0.0 | 1.7 | 0.00 | 1.04 | 2.66 | 93 | 1010.3 |
| 20260505051324 | 57 | 360 | 1.7 | 3.5 | 0.00 | 1.04 | 2.66 | 92 | 1010.4 |
| 20260505050330 | 57 | 360 | 1.7 | 3.5 | 0.04 | 1.04 | 2.66 | 93 | 1010.3 |
| 20260505041342 | 56 | 360 | 2.6 | 4.3 | 1.02 | 1.04 | 2.66 | 92 | 1010.5 |
| 20260505040329 | 57 | 360 | 1.7 | 4.3 | 1.22 | 1.04 | 2.65 | 93 | 1010.5 |
| 20260505035334 | 57 | 360 | 4.3 | 5.2 | 1.46 | 1.03 | 2.63 | 92 | 1010.9 |
| 20260505034329 | 57 | 360 | 2.6 | 3.5 | 1.46 | 1.01 | 2.57 | 92 | 1011.8 |
| 20260505033348 | 56 | 360 | 2.6 | 7.8 | 1.54 | 9.88 | 2.51 | 92 | 1011.8 |
| 20260505032336 | 56 | 360 | 2.6 | 4.3 | 1.50 | 9.69 | 2.46 | 92 | 1011.9 |
| 20260505031348 | 57 | 360 | 0.9 | 5.2 | 1.42 | 9.45 | 2.40 | 92 | 1012.4 |
| 20260505030338 | 56 | 360 | 0.9 | 9.6 | 1.42 | 9.17 | 2.33 | 91 | 1012.3 |
| 20260505025324 | 56 | 360 | 7.0 | 10.4 | 1.42 | 8.86 | 2.25 | 91 | 1012.1 |
| 20260505024340 | 56 | 360 | 5.2 | 9.6 | 1.42 | 8.62 | 2.19 | 91 | 1012.0 |
| 20260505023340 | 56 | 360 | 4.3 | 12.2 | 1.34 | 8.35 | 2.12 | 91 | 1012.0 |
| 20260505022328 | 57 | 360 | 5.2 | 10.4 | 1.38 | 8.19 | 2.08 | 92 | 1012.1 |
| 20260505021333 | 57 | 360 | 6.1 | 8.7 | 1.61 | 7.99 | 2.03 | 92 | 1012.0 |
| 20260505020337 | 58 | 360 | 4.3 | 7.0 | 2.09 | 7.76 | 1.97 | 92 | 1012.3 |
| 20260505015335 | 58 | 360 | 3.5 | 8.7 | 2.09 | 7.44 | 1.89 | 92 | 1012.5 |
| 20260505014347 | 58 | 360 | 3.5 | 7.0 | 2.09 | 7.20 | 1.83 | 92 | 1012.6 |